Tracking 18710 objects as of 29-June-2017
HD Live streaming from Space Station
objects crossing your sky now

PUCP-SAT 1

Track PUCP-SAT 1 now!
10-day predictions
PUCP-SAT 1 is classified as:


NORAD ID: 39442
Int'l Code: 2013-066AC
Perigee: 582.1 km
Apogee: 626.9 km
Inclination: 97.6 °
Period: 96.6 minutes
Semi major axis: 6975 km
RCS: Unknown
Launch date: November 21, 2013
Source: (TBD)
Launch site: Orenburg, Russia (OREN)
Uplink (MHz): 145.840
Downlink (MHz): 145.840/437.200
Beacon (MHz):
Mode: 1200bps AFSK
Call sign:
Status: Inactive

Your satellite tracking list
Your tracking list is empty





NASA's NSSDC Master Catalog

Two Line Element Set (TLE):
1 39442U 13066AC  17179.63210974 +.00000340 +00000-0 +40429-4 0  9995
2 39442 097.6483 240.5925 0032062 181.8929 178.2173 14.90187784193774
Source of the keplerian elements: AFSPC